Date String (YYYY-MM-DD hh:mm:ss) UTC,Instrument flags,Ambient pressure (hPa),Sample flow (lpm),Bypass flow (lpm),Sample temperature (°C),Ambient temperature (°C),ASC tube jacket temperature (°C),LED temperature (°C),Box temperature (°C),Sample RH (%),Span deviation,Mass concentration (μg/m³),Mass concentration (μg/m³),Mass concentration (μg/m³)
DateTimeUTC,F1_M11,P_M11,Q1_M11,Q2_M11,T1_M11,T2_M11,T3_M11,T4_M11,T5_M11,U1_M11,ZSPAN_M11,X2_M11,X0_M11,X1_M11
2022-08-29 10:00:00,,0826.8,5.00,0.00,30.3,29.2,00.0,39.0,32.1,19.0,0000.0,0005.74,0015.08,0004.80
2022-08-29 10:01:00,,0826.9,5.00,0.00,30.3,29.3,00.0,39.1,32.2,19.0,0000.0,0005.70,0014.29,0004.78
2022-08-29 10:02:00,,0827.0,5.01,0.00,30.3,29.3,00.0,39.1,32.2,19.0,0000.0,0005.68,0014.04,0004.76
2022-08-29 10:03:00,,0827.1,4.99,0.00,30.4,29.3,00.0,39.1,32.2,18.9,0000.0,0005.68,0013.44,0004.75
2022-08-29 10:04:00,,0827.1,4.98,0.00,30.4,28.9,00.0,39.1,32.2,18.9,0000.0,0005.66,0012.61,0004.73
2022-08-29 10:05:00,,0827.1,5.00,0.00,30.3,27.4,00.0,39.1,32.0,18.9,0000.0,0005.64,0011.54,0004.72
2022-08-29 10:06:00,,0826.9,5.01,0.00,30.3,26.8,00.0,39.0,32.0,19.0,0000.0,0005.65,0011.26,0004.72
2022-08-29 10:07:00,,0827.1,4.99,0.00,30.2,27.0,00.0,38.9,31.7,19.1,0000.0,0005.61,0011.57,0004.72
2022-08-29 10:08:00,,0826.9,5.01,0.00,30.1,27.3,00.0,38.9,31.6,19.2,0000.0,0005.62,0011.57,0004.73
2022-08-29 10:09:00,,0826.9,5.00,0.00,30.0,27.6,00.0,38.9,31.7,19.3,0000.0,0005.64,0011.46,0004.73
2022-08-29 10:10:00,,0827.2,5.00,0.00,30.0,27.8,00.0,38.9,31.7,19.3,0000.0,0005.58,0010.66,0004.73
2022-08-29 10:11:00,,0827.1,4.99,0.00,30.0,28.1,00.0,38.9,31.7,19.3,0000.0,0005.56,0010.54,0004.72
2022-08-29 10:12:00,,0827.1,5.01,0.00,30.0,28.2,00.0,38.8,31.7,19.3,0000.0,0005.54,0010.46,0004.72
2022-08-29 10:13:00,,0827.4,5.00,0.00,30.0,28.4,00.0,38.8,31.8,19.3,0000.0,0005.53,0010.94,0004.72
2022-08-29 10:14:00,,0827.4,5.00,0.00,30.0,28.5,00.0,38.8,31.8,19.3,0000.0,0005.51,0011.28,0004.72
2022-08-29 10:15:00,,0827.3,5.00,0.00,30.0,28.6,00.0,38.8,31.8,19.3,0000.0,0005.53,0011.51,0004.73
2022-08-29 10:16:00,,0827.1,5.00,0.00,30.0,28.7,00.0,38.8,31.8,19.3,0000.0,0005.52,0011.46,0004.73
2022-08-29 10:17:00,,0827.1,5.00,0.00,30.0,28.7,00.0,38.8,31.8,19.2,0000.0,0005.52,0011.90,0004.72
2022-08-29 10:18:00,,0827.2,5.00,0.00,30.0,28.8,00.0,38.8,31.9,19.2,0000.0,0005.51,0011.88,0004.70
2022-08-29 10:19:00,,0827.1,5.01,0.00,30.0,28.8,00.0,38.8,31.9,19.2,0000.0,0005.46,0012.15,0004.69
2022-08-29 10:20:00,,0827.0,5.00,0.00,30.1,28.9,00.0,38.8,31.9,19.2,0000.0,0005.41,0012.19,0004.69
2022-08-29 10:21:00,,0827.1,5.00,0.00,30.1,28.9,00.0,38.9,31.9,19.2,0000.0,0005.42,0012.34,0004.69
2022-08-29 10:22:00,,0827.2,5.00,0.00,30.1,28.9,00.0,38.9,31.9,19.3,0000.0,0005.44,0012.77,0004.69
2022-08-29 10:23:00,,0827.2,5.00,0.00,30.1,29.0,00.0,38.9,31.9,19.3,0000.0,0005.42,0013.48,0004.68
2022-08-29 10:24:00,,0827.1,5.01,0.00,30.1,29.0,00.0,38.9,32.0,19.2,0000.0,0005.38,0013.73,0004.67
2022-08-29 10:25:00,,0827.1,5.00,0.00,30.1,29.0,00.0,38.9,32.0,19.2,0000.0,0005.38,0013.37,0004.65
2022-08-29 10:26:00,,0827.3,5.00,0.00,30.2,29.0,00.0,38.9,32.0,19.1,0000.0,0005.37,0013.02,0004.65
2022-08-29 10:27:00,,0827.5,5.00,0.00,30.2,29.0,00.0,38.9,32.0,19.1,0000.0,0005.36,0012.86,0004.63
2022-08-29 10:28:00,,0827.4,5.00,0.00,30.2,29.1,00.0,38.9,32.0,19.1,0000.0,0005.38,0012.62,0004.63
2022-08-29 10:29:00,,0827.0,5.00,0.00,30.2,29.1,00.0,38.9,32.0,19.0,0000.0,0005.40,0012.52,0004.65
2022-08-29 10:30:00,,0827.1,5.01,0.00,30.2,29.1,00.0,39.0,32.0,19.0,0000.0,0005.45,0012.46,0004.67
2022-08-29 10:31:00,,0827.2,5.00,0.00,30.2,29.1,00.0,39.0,32.0,19.1,0000.0,0005.47,0012.25,0004.68
2022-08-29 10:32:00,,0827.2,5.00,0.00,30.2,29.1,00.0,39.0,32.1,19.0,0000.0,0005.50,0012.11,0004.68
2022-08-29 10:33:00,,0827.2,5.00,0.00,30.2,29.1,00.0,39.0,32.1,18.9,0000.0,0005.46,0011.63,0004.68
2022-08-29 10:34:00,,0827.2,5.00,0.00,30.3,29.1,00.0,39.0,32.1,18.8,0000.0,0005.46,0011.47,0004.69
2022-08-29 10:35:00,,0827.2,5.00,0.00,30.3,29.2,00.0,39.0,32.1,18.8,0000.0,0005.46,0011.17,0004.71
2022-08-29 10:36:00,,0827.2,5.01,0.00,30.3,29.2,00.0,39.0,32.1,18.9,0000.0,0005.47,0011.11,0004.72
2022-08-29 10:37:00,,0827.2,5.00,0.00,30.3,29.2,00.0,39.1,32.1,18.8,0000.0,0005.48,0011.23,0004.72
2022-08-29 10:38:00,,0827.2,5.00,0.00,30.3,29.2,00.0,39.1,32.1,18.8,0000.0,0005.52,0011.38,0004.73
2022-08-29 10:39:00,,0827.2,5.00,0.00,30.3,29.2,00.0,39.1,32.1,18.9,0000.0,0005.53,0011.38,0004.74
2022-08-29 10:40:00,,0827.2,5.00,0.00,30.3,29.2,00.0,39.1,32.1,18.9,0000.0,0005.53,0011.71,0004.74
2022-08-29 10:41:00,,0827.3,5.00,0.00,30.3,29.2,00.0,39.1,32.2,18.9,0000.0,0005.55,0011.65,0004.73
2022-08-29 10:42:00,,0827.2,5.00,0.00,30.4,29.2,00.0,39.1,32.2,18.8,0000.0,0005.55,0011.59,0004.72
2022-08-29 10:43:00,,0827.2,5.00,0.00,30.4,29.2,00.0,39.1,32.2,18.7,0000.0,0005.51,0011.54,0004.71
2022-08-29 10:44:00,,0827.3,5.00,0.00,30.4,29.2,00.0,39.1,32.2,18.6,0000.0,0005.53,0011.70,0004.70
2022-08-29 10:45:00,,0827.2,5.02,0.00,30.4,29.3,00.0,39.2,32.2,18.6,0000.0,0005.55,0011.52,0004.69
2022-08-29 10:46:00,,0827.2,4.99,0.00,30.4,29.3,00.0,39.2,32.2,18.7,0000.0,0005.58,0011.25,0004.70
2022-08-29 10:47:00,,0827.2,5.00,0.00,30.4,29.3,00.0,39.2,32.2,18.5,0000.0,0005.58,0011.28,0004.70
2022-08-29 10:48:00,,0827.2,5.01,0.00,30.4,28.5,00.0,39.2,32.2,18.6,0000.0,0005.58,0011.58,0004.71
2022-08-29 10:49:00,,0827.2,4.99,0.00,30.4,27.0,00.0,39.1,32.0,18.8,0000.0,0005.52,0011.52,0004.70
2022-08-29 10:50:00,,0827.2,5.01,0.00,30.3,26.7,00.0,39.0,31.9,18.8,0000.0,0005.48,0011.57,0004.70
2022-08-29 10:51:00,,0827.2,4.99,0.00,30.2,26.9,00.0,39.0,31.7,19.0,0000.0,0005.45,0011.61,0004.70
2022-08-29 10:52:00,,0827.2,5.01,0.00,30.1,27.3,00.0,39.0,31.7,19.4,0000.0,0005.41,0011.39,0004.69
2022-08-29 10:53:00,,0827.2,4.99,0.00,30.0,27.6,00.0,38.9,31.7,19.6,0000.0,0005.42,0011.45,0004.68
2022-08-29 10:54:00,,0827.2,5.01,0.00,30.0,27.8,00.0,38.9,31.7,19.7,0000.0,0005.42,0011.72,0004.67
2022-08-29 10:55:00,,0827.2,5.01,0.00,30.0,28.0,00.0,38.9,31.7,19.7,0000.0,0005.44,0012.45,0004.67
2022-08-29 10:56:00,,0827.2,4.99,0.00,30.0,28.2,00.0,38.9,31.7,19.7,0000.0,0005.48,0012.74,0004.68
2022-08-29 10:57:00,,0827.2,5.01,0.00,30.0,28.3,00.0,38.9,31.7,19.8,0000.0,0005.45,0013.42,0004.68
2022-08-29 10:58:00,,0827.2,5.00,0.00,30.0,28.4,00.0,38.8,31.7,19.8,0000.0,0005.40,0013.51,0004.66
2022-08-29 10:59:00,,0827.2,5.00,0.00,30.0,28.5,00.0,38.8,31.8,19.9,0000.0,0005.42,0014.07,0004.64
